map of JOI home
JOI - Airport
Location
City:  Joinville, Santa Catarina, Brazil
Name:Lauro Carneiro de Loyola
ICAO:SBJV
IATA:JOI

Details
Type:Airport (Aerodrome, Airfield)
Latitude:2613'28"S (-26.224452)
Longitude:4847'51"W (-48.797363)
Datum:WGS 1984
Elevation:15 ft (5 m)
Variation:19.53W (WMM2015 magnetic declination)
-0.14 annual change
Runways:1
Longest:5381 × 148 ft (1640 × 45 m), paved

Time
Time Zone:UTC-3 (DST-2)
Local Time:

Weather
METAR:SBJV 230200Z 17003KT 7000 -RA SCT010 BKN020 23/23 Q1020
TAF:SBJV 222245Z 2300/2312 14004KT 9999 BKN012 TN21/2308Z TX23/2312Z
BECMG 2301/2303 29004KT PROB40 2306/2310 5000 BR BKN006
BECMG 2310/2312 9999 NSW BKN020
RMK PER

Related Locations
Nearby:
Farthest:MMD: 12443 mi / 20025 km
Minamidaito [Minami Daito Airport], Minamidaito Jima, 47, JP

Find:

   beyond  
but within

Other Information
Maps:
NOTAMs:
Links:
Sources:

  
flag of Brazil
flag of Santa Catarina
  

Sectional Chart

Flight Planning
at skyvector.com

Satellite Image

Google Maps Satellite view

 

Copyright © 2004-2017 Karl L. Swartz. All rights reserved.
The Great Circle Mapper name and logo are trademarks of the Great Circle Mapper.
All other trademarks mentioned herein belong to their respective owners.
Please see credits for attibutions and further copyright information.

  Follow gcmap on Facebook Follow gcmap on Twitter Follow gcmap on Google+ GCmap on LinkedIn

hCard Microformat

Geo Microformat